Simultaneous Nadir Overpasses (SNOs) Predictions

Prediction of SNOs between NOAA-15 and METOP-C Satellite Orbit:

Table of predicted SNOs for the next 14.0 days since TLE Epoch: 7/15/2023
Index Date (NOAA-15) Time (NOAA-15) Lat,Lon (NOAA-15) SZA (NOAA-15 ) Date (METOP-C) Time (METOP-C) Lat,Lon (METOP-C) SZA (METOP-C ) Distance(km) Time Diff (sec)
1 07/17/2023 14:00:17 -81.10,-171.97 118.26 07/17/2023 13:59:08 -81.08,-171.90 118.29 2.12 69
2 07/17/2023 14:50:50 81.09, -4.51 61.76 07/17/2023 14:49:47 81.09, -4.33 61.75 3.03 63
3 07/17/2023 15:41:17 -81.08, 163.10 118.23 07/17/2023 15:40:29 -81.09, 162.96 118.25 2.53 48
4 07/17/2023 16:31:51 81.09, -29.80 61.77 07/17/2023 16:31:09 81.08, -29.85 61.74 1.33 42
5 07/17/2023 17:22:18 -81.08, 137.80 118.22 07/17/2023 17:21:50 -81.10, 137.81 118.22 1.42 28
6 07/17/2023 18:12:52 81.09, -55.10 61.78 07/17/2023 18:12:30 81.09, -54.99 61.78 1.92 22
7 07/17/2023 19:03:20 -81.10, 112.13 118.23 07/17/2023 19:03:12 -81.09, 112.30 118.23 3.23 8
8 07/17/2023 19:53:53 81.10, -80.39 61.79 07/17/2023 19:53:52 81.08, -80.51 61.76 2.39 1
9 07/17/2023 20:44:20 -81.09, 87.20 118.20 07/17/2023 20:44:33 -81.10, 87.15 118.19 1.29 13
10 07/17/2023 21:34:54 81.10,-105.69 61.80 07/17/2023 21:35:13 81.09,-105.65 61.80 1.05 19
11 07/17/2023 22:25:21 -81.09, 61.90 118.19 07/17/2023 22:25:54 -81.10, 62.01 118.15 2.50 33
12 07/17/2023 23:15:55 81.10,-130.99 61.80 07/17/2023 23:16:34 81.10,-130.79 61.84 3.35 39
13 07/18/2023 00:06:22 -81.09, 36.60 118.18 07/18/2023 00:07:16 -81.10, 36.49 118.17 1.95 54
14 07/18/2023 00:56:56 81.10,-156.28 61.81 07/18/2023 00:57:56 81.09,-156.31 61.83 1.18 60



Historial Predications of SNOs between NOAA-15 and METOP-C
